Location: Mountain Grove
(34.0887°N, 86.6172°W)
Time: 00:23:11
(UTC+00:00)

SEDSat Delta rocket - Pass Details

Date: 14 July 2020
Orbit: 533 x 1001 km, 31.4° (Epoch: 12 August)

Event Time Altitude Azimuth Distance (km) Brightness Sun altitude
Rises 03:27:35 0° 259° (W) 3,227 7.1 -24.5°
Reaches altitude 10° 03:29:56 10° 257° (WSW) 2,372 6.3 -24.8°
Maximum altitude 03:35:37 68° 175° (S) 941 3.6 -25.5°
Enters shadow 03:35:54 67° 157° (SSE) 951 3.6 -25.5°
